Terminal Aerodrome Forecast
Issued by NWS St Louis, MO

Home | Current Version | Previous Version | Text Only | Print | Product List | Glossary On
Versions: 1 2 3 4 5 6 7 8 9 10 11 12 13 14 15 16 17 18 19 20
000
FTUS43 KLSX 152300
TAFCOU
TAF
KCOU 152330Z 1600/1624 25015G25KT P6SM VCSH OVC012
     FM160900 29016G26KT P6SM OVC012
     FM161800 30014G24KT P6SM OVC025=

USA.gov is the U.S. government's official web portal to all federal, state and local government web resources and services.